"read_dt","SO2 (ppb)","flags","PMT voltage (V)","lamp voltage (V)","lamp intensity (Hz)","internal temp (C)","react chamber temp (C)","sample flow (l/min)","pres (mmHg)","SO2 bkg (ppb)","SO2 coefficient"
2015-12-14 00:00:00,1806E-3,5C000400,-0724,0832,12098,022.7,045.3,0.265,757.4,01.16,0.508
2015-12-14 00:01:00,1777E-3,5C000400,-0724,0831,12209,022.6,045.3,0.265,757.4,01.16,0.508
2015-12-14 00:02:00,1642E-3,5C000400,-0724,0832,12073,022.6,045.3,0.265,757.4,01.16,0.508
2015-12-14 00:03:00,1877E-3,5C000400,-0724,0833,12135,022.6,045.3,0.266,757.4,01.16,0.508
2015-12-14 00:04:00,1794E-3,5C000400,-0724,0832,12072,022.6,045.3,0.265,757.4,01.16,0.508
2015-12-14 00:05:00,1783E-3,5C000400,-0724,0832,12186,022.6,045.3,0.265,757.4,01.16,0.508
2015-12-14 00:06:00,1876E-3,5C000400,-0724,0832,12174,022.7,045.3,0.265,757.5,01.16,0.508
2015-12-14 00:07:00,1812E-3,5C000400,-0724,0832,10911,022.6,045.3,0.265,757.5,01.16,0.508
2015-12-14 00:08:00,1810E-3,5C000400,-0724,0832,12275,022.6,045.3,0.265,757.5,01.16,0.508
2015-12-14 00:09:00,1969E-3,5C000400,-0724,0831,12113,022.6,045.3,0.265,757.5,01.16,0.508
2015-12-14 00:10:00,1747E-3,5C000400,-0724,0832,12214,022.6,045.3,0.266,757.5,01.16,0.508
2015-12-14 00:11:00,1706E-3,5C000400,-0724,0832,12236,022.6,045.3,0.266,757.5,01.16,0.508
2015-12-14 00:12:00,1770E-3,5C000400,-0724,0833,12275,022.6,045.3,0.265,757.5,01.16,0.508
2015-12-14 00:13:00,1756E-3,5C000400,-0724,0832,12242,022.6,045.3,0.265,757.5,01.16,0.508
2015-12-14 00:14:00,1958E-3,5C000400,-0724,0832,12281,022.6,045.3,0.266,757.5,01.16,0.508
2015-12-14 00:15:00,1818E-3,5C000400,-0724,0832,12100,022.6,045.3,0.266,757.5,01.16,0.508
2015-12-14 00:16:00,1895E-3,5C000400,-0724,0832,12136,022.6,045.3,0.266,757.5,01.16,0.508
2015-12-14 00:17:00,1729E-3,5C000400,-0724,0832,12125,022.6,045.3,0.265,757.5,01.16,0.508
2015-12-14 00:18:00,1775E-3,5C000400,-0724,0832,12187,022.6,045.3,0.265,757.5,01.16,0.508
2015-12-14 00:19:00,1838E-3,5C000400,-0724,0832,12060,022.6,045.3,0.265,757.5,01.16,0.508
2015-12-14 00:20:00,1706E-3,5C000400,-0724,0833,12282,022.6,045.3,0.266,757.5,01.16,0.508
2015-12-14 00:21:00,1761E-3,5C000400,-0724,0831,12283,022.6,045.3,0.266,757.5,01.16,0.508
2015-12-14 00:22:00,1747E-3,5C000400,-0724,0832,12144,022.6,045.3,0.265,757.5,01.16,0.508
2015-12-14 00:23:00,1746E-3,5C000400,-0724,0831,12149,022.6,045.3,0.265,757.6,01.16,0.508
2015-12-14 00:24:00,1822E-3,5C000400,-0724,0832,12224,022.5,045.3,0.265,757.6,01.16,0.508
2015-12-14 00:25:00,1727E-3,5C000400,-0724,0832,12082,022.6,045.3,0.265,757.6,01.16,0.508
2015-12-14 00:26:00,1848E-3,5C000400,-0724,0832,12100,022.6,045.3,0.266,757.6,01.16,0.508
2015-12-14 00:27:00,1683E-3,5C000400,-0724,0833,12165,022.5,045.3,0.266,757.6,01.16,0.508
2015-12-14 00:28:00,1733E-3,5C000400,-0724,0833,12128,022.5,045.3,0.266,757.6,01.16,0.508
2015-12-14 00:29:00,1847E-3,5C000400,-0724,0832,12288,022.6,045.3,0.266,757.6,01.16,0.508
2015-12-14 00:30:00,1712E-3,5C000400,-0724,0832,12180,022.5,045.3,0.265,757.6,01.16,0.508
2015-12-14 00:31:00,1738E-3,5C000400,-0724,0832,12265,022.5,045.3,0.265,757.6,01.16,0.508
2015-12-14 00:32:00,1898E-3,5C000400,-0724,0833,12072,022.5,045.3,0.265,757.6,01.16,0.508
2015-12-14 00:33:00,1721E-3,5C000400,-0724,0832,12166,022.5,045.3,0.266,757.6,01.16,0.508
2015-12-14 00:34:00,1768E-3,5C000400,-0724,0832,12138,022.5,045.3,0.266,757.6,01.16,0.508
2015-12-14 00:35:00,1772E-3,5C000400,-0724,0832,12126,022.5,045.3,0.266,757.6,01.16,0.508
2015-12-14 00:36:00,1740E-3,5C000400,-0724,0832,12145,022.5,045.3,0.266,757.6,01.16,0.508
2015-12-14 00:37:00,1767E-3,5C000400,-0724,0831,12168,022.5,045.3,0.266,757.6,01.16,0.508
2015-12-14 00:38:00,1693E-3,5C000400,-0724,0832,12187,022.5,045.3,0.265,757.6,01.16,0.508
2015-12-14 00:39:00,1843E-3,5C000400,-0724,0833,12335,022.4,045.3,0.265,757.6,01.16,0.508
2015-12-14 00:40:00,1905E-3,5C000400,-0724,0832,12222,022.5,045.3,0.265,757.6,01.16,0.508
2015-12-14 00:41:00,1842E-3,5C000400,-0724,0832,12188,022.5,045.3,0.266,757.6,01.16,0.508
2015-12-14 00:42:00,1837E-3,5C000400,-0724,0833,12211,022.5,045.3,0.266,757.6,01.16,0.508
2015-12-14 00:43:00,1927E-3,5C000400,-0724,0831,12085,022.5,045.3,0.266,757.6,01.16,0.508
2015-12-14 00:44:00,1831E-3,5C000400,-0724,0831,12302,022.5,045.3,0.266,757.6,01.16,0.508
2015-12-14 00:45:00,1719E-3,5C000400,-0724,0832,12138,022.5,045.3,0.265,757.7,01.16,0.508
2015-12-14 00:46:00,1691E-3,5C000400,-0724,0831,12192,022.5,045.3,0.265,757.7,01.16,0.508
2015-12-14 00:47:00,1725E-3,5C000400,-0724,0832,12060,022.5,045.3,0.265,757.6,01.16,0.508
2015-12-14 00:48:00,1839E-3,5C000400,-0724,0831,12017,022.4,045.3,0.266,757.6,01.16,0.508
2015-12-14 00:49:00,1781E-3,5C000400,-0724,0832,12250,022.5,045.3,0.266,757.6,01.16,0.508
2015-12-14 00:50:00,1698E-3,5C000400,-0724,0832,12073,022.4,045.3,0.266,757.6,01.16,0.508
2015-12-14 00:51:00,1898E-3,5C000400,-0724,0832,12197,022.4,045.3,0.266,757.7,01.16,0.508
2015-12-14 00:52:00,1820E-3,5C000400,-0724,0831,12186,022.4,045.3,0.265,757.6,01.16,0.508
2015-12-14 00:53:00,1746E-3,5C000400,-0724,0832,12143,022.4,045.3,0.265,757.7,01.16,0.508
2015-12-14 00:54:00,1759E-3,5C000400,-0724,0832,12127,022.4,045.3,0.266,757.7,01.16,0.508
2015-12-14 00:55:00,1925E-3,5C000400,-0724,0832,12221,022.4,045.3,0.266,757.6,01.16,0.508
2015-12-14 00:56:00,1839E-3,5C000400,-0724,0833,12280,022.4,045.3,0.266,757.7,01.16,0.508
2015-12-14 00:57:00,1838E-3,5C000400,-0724,0832,12080,022.4,045.3,0.266,757.6,01.16,0.508
2015-12-14 00:58:00,1904E-3,5C000400,-0724,0832,12226,022.4,045.3,0.266,757.6,01.16,0.508
2015-12-14 00:59:00,1802E-3,5C000400,-0724,0831,12312,022.4,045.3,0.265,757.7,01.16,0.508
2015-12-14 01:00:00,1760E-3,5C000400,-0724,0832,12161,022.4,045.3,0.265,757.7,01.16,0.508
2015-12-14 01:01:00,1761E-3,5C000400,-0724,0832,12012,022.4,045.3,0.266,757.7,01.16,0.508
2015-12-14 01:02:00,1799E-3,5C000400,-0724,0833,12114,022.4,045.3,0.266,757.7,01.16,0.508
2015-12-14 01:03:00,1743E-3,5C000400,-0724,0832,12203,022.4,045.3,0.266,757.7,01.16,0.508
2015-12-14 01:04:00,1933E-3,5C000400,-0724,0833,12170,022.4,045.3,0.266,757.7,01.16,0.508
2015-12-14 01:05:00,1885E-3,5C000400,-0724,0832,12110,022.4,045.3,0.266,757.8,01.16,0.508
2015-12-14 01:06:00,1840E-3,5C000400,-0724,0831,12130,022.4,045.3,0.265,757.8,01.16,0.508
2015-12-14 01:07:00,1873E-3,5C000400,-0724,0832,12168,022.4,045.3,0.266,757.8,01.16,0.508
2015-12-14 01:08:00,1883E-3,5C000400,-0724,0832,12204,022.4,045.3,0.266,757.8,01.16,0.508
2015-12-14 01:09:00,1750E-3,5C000400,-0724,0832,12134,022.4,045.3,0.266,757.8,01.16,0.508
2015-12-14 01:10:00,1872E-3,5C000400,-0724,0831,12173,022.4,045.3,0.266,757.8,01.16,0.508
2015-12-14 01:11:00,1831E-3,5C000400,-0724,0831,12128,022.3,045.3,0.266,757.8,01.16,0.508
2015-12-14 01:12:00,1817E-3,5C000400,-0724,0832,12190,022.4,045.3,0.265,757.8,01.16,0.508
2015-12-14 01:13:00,1847E-3,5C000400,-0724,0831,12038,022.3,045.3,0.266,757.8,01.16,0.508
2015-12-14 01:14:00,1754E-3,5C000400,-0724,0831,12275,022.3,045.3,0.266,757.8,01.16,0.508
2015-12-14 01:15:00,1755E-3,5C000400,-0724,0832,12244,022.3,045.3,0.266,757.8,01.16,0.508
2015-12-14 01:16:00,1818E-3,5C000400,-0724,0831,12153,022.3,045.3,0.266,757.8,01.16,0.508
2015-12-14 01:17:00,1888E-3,5C000400,-0724,0832,12264,022.3,045.3,0.266,757.9,01.16,0.508
2015-12-14 01:18:00,1873E-3,5C000400,-0724,0832,12249,022.3,045.3,0.265,757.9,01.16,0.508
2015-12-14 01:19:00,1750E-3,5C000400,-0724,0832,12141,022.3,045.3,0.266,757.9,01.16,0.508
2015-12-14 01:20:00,1878E-3,5C000400,-0724,0832,12173,022.3,045.3,0.266,757.9,01.16,0.508
2015-12-14 01:21:00,1759E-3,5C000400,-0724,0830,12067,022.3,045.3,0.266,758.0,01.16,0.508
2015-12-14 01:22:00,1749E-3,5C000400,-0724,0832,12220,022.3,045.3,0.266,758.0,01.16,0.508
2015-12-14 01:23:00,1769E-3,5C000400,-0724,0831,12098,022.3,045.3,0.265,757.9,01.16,0.508
2015-12-14 01:24:00,1748E-3,5C000400,-0724,0832,12131,022.3,045.3,0.266,757.9,01.16,0.508
2015-12-14 01:25:00,1925E-3,5C000400,-0724,0832,12217,022.3,045.3,0.266,758.0,01.16,0.508
2015-12-14 01:26:00,1878E-3,5C000400,-0724,0832,12356,022.3,045.3,0.266,758.0,01.16,0.508
2015-12-14 01:27:00,1721E-3,5C000400,-0724,0832,12117,022.3,045.3,0.266,758.0,01.16,0.508
2015-12-14 01:28:00,1722E-3,5C000400,-0724,0832,12103,022.3,045.3,0.266,758.0,01.16,0.508
2015-12-14 01:29:00,1830E-3,5C000400,-0724,0833,12057,022.3,045.3,0.266,758.0,01.16,0.508
2015-12-14 01:30:00,1880E-3,5C000400,-0724,0832,12274,022.3,045.3,0.266,758.0,01.16,0.508
2015-12-14 01:31:00,1762E-3,5C000400,-0724,0832,12189,022.3,045.3,0.265,758.0,01.16,0.508
2015-12-14 01:32:00,1904E-3,5C000400,-0724,0831,12248,022.3,045.3,0.266,758.0,01.16,0.508
2015-12-14 01:33:00,1936E-3,5C000400,-0724,0832,12185,022.2,045.3,0.266,758.0,01.16,0.508
2015-12-14 01:34:00,1724E-3,5C000400,-0724,0831,12149,022.3,045.3,0.266,758.0,01.16,0.508
2015-12-14 01:35:00,1641E-3,5C000400,-0724,0831,12312,022.2,045.3,0.266,758.0,01.16,0.508
2015-12-14 01:36:00,1760E-3,5C000400,-0724,0833,12161,022.3,045.3,0.266,758.1,01.16,0.508
2015-12-14 01:37:00,1733E-3,5C000400,-0724,0831,12226,022.2,045.3,0.266,758.1,01.16,0.508
2015-12-14 01:38:00,1857E-3,5C000400,-0724,0831,12173,022.2,045.3,0.266,758.1,01.16,0.508
2015-12-14 01:39:00,1781E-3,5C000400,-0724,0831,12259,022.2,045.3,0.266,758.1,01.16,0.508
2015-12-14 01:40:00,1648E-3,5C000400,-0724,0832,12094,022.2,045.3,0.266,758.1,01.16,0.508
2015-12-14 01:41:00,1890E-3,5C000400,-0724,0832,12203,022.3,045.3,0.266,758.1,01.16,0.508
2015-12-14 01:42:00,1807E-3,5C000400,-0724,0832,12177,022.2,045.3,0.266,758.1,01.16,0.508
2015-12-14 01:43:00,1793E-3,5C000400,-0724,0831,12217,022.2,045.3,0.266,758.1,01.16,0.508
2015-12-14 01:44:00,1935E-3,5C000400,-0724,0831,12320,022.2,045.3,0.266,758.1,01.16,0.508
2015-12-14 01:45:00,1685E-3,5C000400,-0724,0831,12268,022.2,045.3,0.266,758.1,01.16,0.508
2015-12-14 01:46:00,1772E-3,5C000400,-0724,0832,12328,022.2,045.3,0.266,758.1,01.16,0.508
2015-12-14 01:47:00,1679E-3,5C000400,-0724,0832,12127,022.2,045.3,0.266,758.1,01.16,0.508
2015-12-14 01:48:00,1804E-3,5C000400,-0724,0832,12105,022.2,045.3,0.266,758.1,01.16,0.508
2015-12-14 01:49:00,1686E-3,5C000400,-0724,0831,12249,022.2,045.3,0.266,758.1,01.16,0.508
2015-12-14 01:50:00,1789E-3,5C000400,-0724,0832,12248,022.2,045.3,0.266,758.1,01.16,0.508
2015-12-14 01:51:00,1849E-3,5C000400,-0724,0832,12113,022.2,045.3,0.266,758.1,01.16,0.508
2015-12-14 01:52:00,1789E-3,5C000400,-0724,0833,12127,022.2,045.3,0.266,758.1,01.16,0.508
2015-12-14 01:53:00,1690E-3,5C000400,-0724,0832,12199,022.2,045.3,0.266,758.1,01.16,0.508
2015-12-14 01:54:00,1833E-3,5C000400,-0724,0831,12264,022.2,045.3,0.266,758.1,01.16,0.508
2015-12-14 01:55:00,1795E-3,5C000400,-0724,0832,12208,022.2,045.3,0.266,758.2,01.16,0.508
2015-12-14 01:56:00,1751E-3,5C000400,-0724,0833,12270,022.2,045.3,0.266,758.2,01.16,0.508
2015-12-14 01:57:00,1797E-3,5C000400,-0724,0832,12158,022.2,045.3,0.266,758.2,01.16,0.508
2015-12-14 01:58:00,1731E-3,5C000400,-0724,0833,12212,022.2,045.3,0.266,758.2,01.16,0.508
2015-12-14 01:59:00,1916E-3,5C000400,-0724,0832,12194,022.2,045.3,0.266,758.2,01.16,0.508
2015-12-14 02:00:00,1843E-3,5C000400,-0724,0832,12355,022.2,045.3,0.266,758.2,01.16,0.508
2015-12-14 02:01:00,1830E-3,5C000400,-0724,0832,12122,022.2,045.3,0.266,758.2,01.16,0.508
2015-12-14 02:02:00,1783E-3,5C000400,-0724,0832,12109,022.2,045.3,0.266,758.2,01.16,0.508
2015-12-14 02:03:00,1682E-3,5C000400,-0724,0832,12050,022.2,045.3,0.266,758.2,01.16,0.508
2015-12-14 02:04:00,1846E-3,5C000400,-0724,0833,12122,022.1,045.3,0.266,758.2,01.16,0.508
2015-12-14 02:05:00,1799E-3,5C000400,-0724,0832,12160,022.2,045.3,0.266,758.2,01.16,0.508
2015-12-14 02:06:00,1724E-3,5C000400,-0724,0832,12221,022.1,045.3,0.266,758.2,01.16,0.508
2015-12-14 02:07:00,1788E-3,5C000400,-0724,0833,12259,022.2,045.3,0.266,758.2,01.16,0.508
2015-12-14 02:08:00,1838E-3,5C000400,-0724,0832,12162,022.1,045.3,0.266,758.2,01.16,0.508
2015-12-14 02:09:00,1645E-3,5C000400,-0724,0831,12196,022.1,045.3,0.266,758.2,01.16,0.508
2015-12-14 02:10:00,1849E-3,5C000400,-0724,0831,12256,022.2,045.3,0.266,758.2,01.16,0.508
2015-12-14 02:11:00,1675E-3,5C000400,-0724,0832,12121,022.1,045.3,0.266,758.2,01.16,0.508
2015-12-14 02:12:00,1833E-3,5C000400,-0724,0832,12332,022.1,045.3,0.266,758.2,01.16,0.508
2015-12-14 02:13:00,1822E-3,5C000400,-0724,0832,12052,022.1,045.3,0.266,758.2,01.16,0.508
2015-12-14 02:14:00,1722E-3,5C000400,-0724,0831,12232,022.1,045.3,0.266,758.1,01.16,0.508
2015-12-14 02:15:00,1814E-3,5C000400,-0724,0831,12218,022.1,045.3,0.266,758.1,01.16,0.508
2015-12-14 02:16:00,1798E-3,5C000400,-0724,0831,12067,022.1,045.3,0.266,758.1,01.16,0.508
2015-12-14 02:17:00,1746E-3,5C000400,-0724,0831,12284,022.1,045.3,0.266,758.2,01.16,0.508
2015-12-14 02:18:00,1711E-3,5C000400,-0724,0832,12137,022.1,045.2,0.266,758.1,01.16,0.508
2015-12-14 02:19:00,1769E-3,5C000400,-0724,0832,12206,022.1,045.3,0.266,758.1,01.16,0.508
2015-12-14 02:20:00,1808E-3,5C000400,-0724,0832,12270,022.1,045.3,0.266,758.1,01.16,0.508
2015-12-14 02:21:00,1816E-3,5C000400,-0724,0831,12088,022.1,045.3,0.266,758.1,01.16,0.508
2015-12-14 02:22:00,1814E-3,5C000400,-0724,0833,12308,022.1,045.3,0.267,758.1,01.16,0.508
2015-12-14 02:23:00,1743E-3,5C000400,-0724,0832,12160,022.1,045.3,0.266,758.1,01.16,0.508
2015-12-14 02:24:00,1807E-3,5C000400,-0724,0832,12068,022.1,045.3,0.266,758.1,01.16,0.508
2015-12-14 02:25:00,1994E-3,5C000400,-0724,0832,12114,022.1,045.3,0.266,758.1,01.16,0.508
2015-12-14 02:26:00,1867E-3,5C000400,-0724,0832,12290,022.1,045.3,0.266,758.1,01.16,0.508
2015-12-14 02:27:00,1752E-3,5C000400,-0724,0831,12242,022.1,045.3,0.266,758.1,01.16,0.508
2015-12-14 02:28:00,1773E-3,5C000400,-0724,0832,12193,022.1,045.3,0.266,758.1,01.16,0.508
2015-12-14 02:29:00,1670E-3,5C000400,-0724,0832,12259,022.1,045.3,0.266,758.1,01.16,0.508
2015-12-14 02:30:00,1799E-3,5C000400,-0724,0831,12241,022.1,045.3,0.266,758.1,01.16,0.508
2015-12-14 02:31:00,1787E-3,5C000400,-0724,0832,12236,022.0,045.3,0.267,758.1,01.16,0.508
2015-12-14 02:32:00,1698E-3,5C000400,-0724,0831,12158,022.0,045.3,0.266,758.1,01.16,0.508
2015-12-14 02:33:00,1858E-3,5C000400,-0724,0832,12135,022.1,045.3,0.266,758.1,01.16,0.508
2015-12-14 02:34:00,1803E-3,5C000400,-0724,0832,12246,022.1,045.3,0.266,758.1,01.16,0.508
2015-12-14 02:35:00,1679E-3,5C000400,-0724,0832,12138,022.1,045.3,0.266,758.1,01.16,0.508
2015-12-14 02:36:00,1784E-3,5C000400,-0724,0833,12236,022.1,045.2,0.266,758.1,01.16,0.508
2015-12-14 02:37:00,1720E-3,5C000400,-0724,0832,12005,022.0,045.3,0.266,758.1,01.16,0.508
2015-12-14 02:38:00,1774E-3,5C000400,-0724,0832,12207,022.0,045.3,0.266,758.1,01.16,0.508
2015-12-14 02:39:00,1849E-3,5C000400,-0724,0832,12161,022.0,045.3,0.267,758.1,01.16,0.508
2015-12-14 02:40:00,1634E-3,5C000400,-0724,0832,12202,022.0,045.3,0.266,758.1,01.16,0.508
2015-12-14 02:41:00,1795E-3,5C000400,-0724,0832,12181,022.0,045.3,0.266,758.1,01.16,0.508
2015-12-14 02:42:00,1686E-3,5C000400,-0724,0832,12185,022.0,045.3,0.266,758.1,01.16,0.508
2015-12-14 02:43:00,1771E-3,5C000400,-0724,0832,12236,022.0,045.3,0.266,758.1,01.16,0.508
2015-12-14 02:44:00,1656E-3,5C000400,-0724,0832,12106,022.0,045.3,0.266,758.1,01.16,0.508
2015-12-14 02:45:00,1833E-3,5C000400,-0724,0832,12278,022.0,045.3,0.266,758.1,01.16,0.508
2015-12-14 02:46:00,1692E-3,5C000400,-0724,0832,12158,022.0,045.3,0.266,758.1,01.16,0.508
2015-12-14 02:47:00,1854E-3,5C000400,-0724,0832,12190,022.0,045.3,0.266,758.2,01.16,0.508
2015-12-14 02:48:00,1863E-3,5C000400,-0724,0832,12076,022.0,045.3,0.267,758.1,01.16,0.508
2015-12-14 02:49:00,1918E-3,5C000400,-0724,0833,12122,022.0,045.3,0.267,758.2,01.16,0.508
2015-12-14 02:50:00,1909E-3,5C000400,-0724,0833,12197,022.0,045.3,0.267,758.2,01.16,0.508
2015-12-14 02:51:00,1800E-3,5C000400,-0724,0833,12275,022.0,045.3,0.266,758.2,01.16,0.508
2015-12-14 02:52:00,1783E-3,5C000400,-0724,0832,12183,022.0,045.3,0.266,758.2,01.16,0.508
2015-12-14 02:53:00,1800E-3,5C000400,-0724,0832,12177,022.0,045.3,0.266,758.2,01.16,0.508
2015-12-14 02:54:00,1700E-3,5C000400,-0724,0831,12065,022.0,045.3,0.266,758.3,01.16,0.508
2015-12-14 02:55:00,1673E-3,5C000400,-0724,0832,12194,022.0,045.3,0.266,758.3,01.16,0.508
2015-12-14 02:56:00,1827E-3,5C000400,-0724,0833,12203,022.0,045.3,0.266,758.3,01.16,0.508
2015-12-14 02:57:00,1866E-3,5C000400,-0724,0832,12139,021.9,045.3,0.267,758.3,01.16,0.508
2015-12-14 02:58:00,1857E-3,5C000400,-0724,0833,12192,022.0,045.3,0.267,758.3,01.16,0.508
2015-12-14 02:59:00,1668E-3,5C000400,-0724,0832,12262,022.0,045.3,0.267,758.2,01.16,0.508
2015-12-14 03:00:00,1659E-3,5C000400,-0724,0831,12138,022.0,045.3,0.267,758.2,01.16,0.508
2015-12-14 03:01:00,1779E-3,5C000400,-0724,0831,12044,022.0,045.3,0.266,758.3,01.16,0.508
2015-12-14 03:02:00,1747E-3,5C000400,-0724,0831,12297,022.0,045.3,0.266,758.2,01.16,0.508
2015-12-14 03:03:00,1616E-3,5C000400,-0724,0831,12228,022.0,045.3,0.266,758.2,01.16,0.508
2015-12-14 03:04:00,1767E-3,5C000400,-0724,0832,12206,021.9,045.3,0.266,758.2,01.16,0.508
2015-12-14 03:05:00,1776E-3,5C000400,-0724,0832,12222,021.9,045.3,0.266,758.2,01.16,0.508
2015-12-14 03:06:00,1723E-3,5C000400,-0724,0832,12102,021.9,045.3,0.266,758.2,01.16,0.508
2015-12-14 03:07:00,1775E-3,5C000400,-0724,0833,12171,021.9,045.3,0.267,758.3,01.16,0.508
2015-12-14 03:08:00,1711E-3,5C000400,-0724,0833,12340,021.9,045.3,0.267,758.3,01.16,0.508
2015-12-14 03:09:00,1694E-3,5C000400,-0724,0832,12173,021.9,045.3,0.267,758.3,01.16,0.508
2015-12-14 03:10:00,1704E-3,5C000400,-0724,0832,12245,021.9,045.3,0.267,758.3,01.16,0.508
2015-12-14 03:11:00,1808E-3,5C000400,-0724,0832,12253,021.9,045.3,0.267,758.3,01.16,0.508
2015-12-14 03:12:00,1857E-3,5C000400,-0724,0832,12157,021.9,045.3,0.267,758.3,01.16,0.508
2015-12-14 03:13:00,1728E-3,5C000400,-0724,0833,12241,021.9,045.3,0.266,758.3,01.16,0.508
2015-12-14 03:14:00,1780E-3,5C000400,-0724,0833,12122,021.9,045.3,0.267,758.3,01.16,0.508
2015-12-14 03:15:00,1813E-3,5C000400,-0724,0832,12207,021.9,045.3,0.267,758.3,01.16,0.508
2015-12-14 03:16:00,1768E-3,5C000400,-0724,0832,12296,021.9,045.3,0.267,758.3,01.16,0.508
2015-12-14 03:17:00,1744E-3,5C000400,-0724,0832,12272,021.9,045.3,0.266,758.3,01.16,0.508
2015-12-14 03:18:00,1833E-3,5C000400,-0724,0832,12206,021.9,045.3,0.266,758.3,01.16,0.508
2015-12-14 03:19:00,1677E-3,5C000400,-0724,0832,12078,021.9,045.3,0.266,758.3,01.16,0.508
2015-12-14 03:20:00,1712E-3,5C000400,-0724,0832,12132,021.9,045.3,0.266,758.3,01.16,0.508
2015-12-14 03:21:00,1678E-3,5C000400,-0724,0832,12230,021.9,045.3,0.267,758.3,01.16,0.508
2015-12-14 03:22:00,1723E-3,5C000400,-0724,0831,11970,021.9,045.2,0.267,758.3,01.16,0.508
2015-12-14 03:23:00,1793E-3,5C000400,-0724,0833,12223,021.9,045.3,0.267,758.3,01.16,0.508
2015-12-14 03:24:00,1816E-3,5C000400,-0724,0832,12214,021.9,045.2,0.267,758.3,01.16,0.508
2015-12-14 03:25:00,1651E-3,5C000400,-0724,0833,12110,021.9,045.3,0.267,758.3,01.16,0.508
2015-12-14 03:26:00,1805E-3,5C000400,-0724,0832,12123,021.9,045.3,0.267,758.3,01.16,0.508
2015-12-14 03:27:00,1879E-3,5C000400,-0724,0832,12217,021.9,045.3,0.266,758.3,01.16,0.508
2015-12-14 03:28:00,1802E-3,5C000400,-0724,0831,12258,021.9,045.3,0.266,758.3,01.16,0.508
2015-12-14 03:29:00,1782E-3,5C000400,-0724,0832,12287,021.9,045.3,0.266,758.3,01.16,0.508
2015-12-14 03:30:00,1711E-3,5C000400,-0724,0833,12181,021.8,045.3,0.267,758.3,01.16,0.508
2015-12-14 03:31:00,1842E-3,5C000400,-0724,0832,12004,021.9,045.3,0.267,758.3,01.16,0.508
2015-12-14 03:32:00,1790E-3,5C000400,-0724,0832,12182,021.9,045.3,0.267,758.3,01.16,0.508
2015-12-14 03:33:00,1742E-3,5C000400,-0724,0832,12319,021.9,045.3,0.267,758.4,01.16,0.508
2015-12-14 03:34:00,1701E-3,5C000400,-0724,0833,12258,021.9,045.3,0.267,758.4,01.16,0.508
2015-12-14 03:35:00,1820E-3,5C000400,-0724,0831,12131,021.9,045.3,0.267,758.4,01.16,0.508
2015-12-14 03:36:00,1705E-3,5C000400,-0724,0832,12232,021.9,045.3,0.267,758.4,01.16,0.508
2015-12-14 03:37:00,1885E-3,5C000400,-0724,0832,12273,021.8,045.3,0.267,758.4,01.16,0.508
2015-12-14 03:38:00,1826E-3,5C000400,-0724,0833,12197,021.8,045.3,0.266,758.4,01.16,0.508
2015-12-14 03:39:00,1664E-3,5C000400,-0724,0832,12284,021.8,045.3,0.266,758.4,01.16,0.508
2015-12-14 03:40:00,1790E-3,5C000400,-0724,0833,12292,021.8,045.3,0.266,758.4,01.16,0.508
2015-12-14 03:41:00,1716E-3,5C000400,-0724,0832,12208,021.8,045.3,0.266,758.4,01.16,0.508
2015-12-14 03:42:00,1832E-3,5C000400,-0724,0832,12145,021.8,045.3,0.267,758.4,01.16,0.508
2015-12-14 03:43:00,1733E-3,5C000400,-0724,0833,12242,021.8,045.3,0.267,758.4,01.16,0.508
2015-12-14 03:44:00,1788E-3,5C000400,-0724,0833,12221,021.8,045.3,0.267,758.4,01.16,0.508
2015-12-14 03:45:00,1700E-3,5C000400,-0724,0832,12109,021.8,045.3,0.267,758.4,01.16,0.508
2015-12-14 03:46:00,1779E-3,5C000400,-0724,0832,12177,021.8,045.3,0.267,758.4,01.16,0.508
2015-12-14 03:47:00,1937E-3,5C000400,-0724,0832,12340,021.8,045.3,0.267,758.4,01.16,0.508
2015-12-14 03:48:00,1769E-3,5C000400,-0724,0832,12209,021.8,045.3,0.267,758.4,01.16,0.508
2015-12-14 03:49:00,1899E-3,5C000400,-0724,0832,12162,021.8,045.3,0.267,758.4,01.16,0.508
2015-12-14 03:50:00,1752E-3,5C000400,-0724,0832,12220,021.8,045.2,0.267,758.3,01.16,0.508
2015-12-14 03:51:00,1793E-3,5C000400,-0724,0833,12168,021.8,045.2,0.267,758.4,01.16,0.508
2015-12-14 03:52:00,1743E-3,5C000400,-0724,0833,11999,021.8,045.3,0.266,758.4,01.16,0.508
2015-12-14 03:53:00,1771E-3,5C000400,-0724,0832,11996,021.8,045.3,0.266,758.4,01.16,0.508
2015-12-14 03:54:00,1830E-3,5C000400,-0724,0832,12258,021.8,045.3,0.266,758.4,01.16,0.508
2015-12-14 03:55:00,1822E-3,5C000400,-0724,0832,12123,021.8,045.3,0.267,758.4,01.16,0.508
2015-12-14 03:56:00,1767E-3,5C000400,-0724,0832,12188,021.8,045.3,0.267,758.4,01.16,0.508
2015-12-14 03:57:00,1794E-3,5C000400,-0724,0832,12137,021.8,045.3,0.267,758.4,01.16,0.508
2015-12-14 03:58:00,1808E-3,5C000400,-0724,0832,12153,021.8,045.3,0.267,758.4,01.16,0.508
2015-12-14 03:59:00,1681E-3,5C000400,-0724,0832,12188,021.8,045.3,0.267,758.4,01.16,0.508
2015-12-14 04:00:00,1812E-3,5C000400,-0724,0832,12139,021.8,045.3,0.267,758.5,01.16,0.508
2015-12-14 04:01:00,1767E-3,5C000400,-0724,0833,12213,021.8,045.2,0.267,758.5,01.16,0.508
2015-12-14 04:02:00,1781E-3,5C000400,-0724,0832,12122,021.8,045.3,0.267,758.5,01.16,0.508
2015-12-14 04:03:00,1788E-3,5C000400,-0724,0832,12219,021.8,045.3,0.267,758.5,01.16,0.508
2015-12-14 04:04:00,1810E-3,5C000400,-0724,0832,12140,021.7,045.3,0.267,758.6,01.16,0.508
2015-12-14 04:05:00,1822E-3,5C000400,-0724,0832,12205,021.7,045.3,0.267,758.6,01.16,0.508
2015-12-14 04:06:00,1714E-3,5C000400,-0724,0832,12166,021.7,045.3,0.266,758.6,01.16,0.508
2015-12-14 04:07:00,1973E-3,5C000400,-0724,0833,12176,021.7,045.3,0.266,758.6,01.16,0.508
2015-12-14 04:08:00,1790E-3,5C000400,-0724,0833,12227,021.7,045.2,0.267,758.6,01.16,0.508
2015-12-14 04:09:00,1777E-3,5C000400,-0724,0832,12204,021.7,045.3,0.267,758.6,01.16,0.508
2015-12-14 04:10:00,1869E-3,5C000400,-0724,0833,12204,021.7,045.3,0.267,758.6,01.16,0.508
2015-12-14 04:11:00,1748E-3,5C000400,-0724,0832,12178,021.7,045.2,0.267,758.6,01.16,0.508
2015-12-14 04:12:00,1770E-3,5C000400,-0724,0832,12248,021.7,045.2,0.267,758.6,01.16,0.508
2015-12-14 04:13:00,1720E-3,5C000400,-0724,0832,12217,021.7,045.2,0.267,758.6,01.16,0.508
2015-12-14 04:14:00,1760E-3,5C000400,-0724,0833,12360,021.7,045.3,0.267,758.6,01.16,0.508
2015-12-14 04:15:00,1810E-3,5C000400,-0724,0832,12270,021.7,045.3,0.267,758.6,01.16,0.508
2015-12-14 04:16:00,1725E-3,5C000400,-0724,0832,12055,021.7,045.3,0.267,758.6,01.16,0.508
2015-12-14 04:17:00,1732E-3,5C000400,-0724,0832,12157,021.7,045.3,0.267,758.6,01.16,0.508
2015-12-14 04:18:00,1740E-3,5C000400,-0724,0832,12279,021.7,045.3,0.267,758.6,01.16,0.508
2015-12-14 04:19:00,1826E-3,5C000400,-0724,0832,12135,021.7,045.3,0.267,758.6,01.16,0.508
2015-12-14 04:20:00,1816E-3,5C000400,-0724,0832,12168,021.7,045.3,0.267,758.6,01.16,0.508